Weather History for Zephyrhills, FL

Change the Weather History Date:

Friday, March 15, 2013

  Actual Average (KPCM) Record (KPCM)
Temperature  
Mean Temperature 53 °F -  
Max Temperature 73 °F 79 °F 92 °F (1945)
Min Temperature 33 °F 53 °F 29 °F (1932)
Degree Days  
Heating Degree Days 12    
Growing Degree Days 3 (Base 50)    
Moisture  
Dew Point 34 °F    
Average Humidity 61    
Maximum Humidity 100    
Minimum Humidity 19    
Precipitation  
Precipitation 0.00 in - - ()
Sea Level Pressure  
Sea Level Pressure 30.25 in    
Wind  
Wind Speed 2 mph (North)    
Max Wind Speed 14 mph    
Max Gust Speed 18 mph    
Visibility 9 miles    
Events      
Averages and records for this station are not official NWS values.
T = Trace of Precipitation, MM = Missing Value Source: NWS Daily Summary

Daily Weather History Graph

Daily Weather History Graph

Search for Another Location

Airport:

Trip Planner

Search our weather history database for the weather conditions in past years. The results will help you decide how hot, cold, wet, or windy it might be!

Date:

Astronomy

Mar. 15, 2013 Rise Set
Actual Time 7:37 AM EDT 7:37 PM EDT
Civil Twilight 7:14 AM EDT 8:00 PM EDT
Nautical Twilight 6:47 AM EDT 8:28 PM EDT
Astronomical Twilight 6:19 AM EDT 8:55 PM EDT
Moon 9:49 AM EDT (3/15) 11:26 PM EDT (3/15)
Length of Visible Light 12h 46m
Length of Day
11h 59m
Waxing Crescent, 15% of the Moon is Illuminated
Mar 15
Waxing Crescent
Mar 19
First Quarter
Mar 27
Full
Apr 3
Last Quarter
Apr 10
New

Hourly Weather History & Observations

Time (EDT) Temp. Dew Point Humidity Pressure Visibility Wind Dir Wind Speed Gust Speed Precip Events Conditions
12:15 AM 41.0 °F 37.4 °F 87% 30.29 in 10.0 mi Calm Calm - N/A   Clear
12:35 AM 41.0 °F 37.4 °F 87% 30.29 in 10.0 mi Calm Calm - N/A   Clear
12:55 AM 41.0 °F 37.4 °F 87% 30.28 in 10.0 mi Calm Calm - N/A   Clear
1:15 AM 41.0 °F 37.4 °F 87% 30.29 in 10.0 mi Calm Calm - N/A   Clear
1:35 AM 39.2 °F 37.4 °F 93% 30.29 in 10.0 mi Calm Calm - N/A   Clear
2:15 AM 37.4 °F 37.4 °F 100% 30.28 in 10.0 mi Calm Calm - N/A   Clear
2:35 AM 37.4 °F 35.6 °F 93% 30.28 in 10.0 mi Calm Calm - N/A   Clear
2:55 AM 37.4 °F 35.6 °F 93% 30.28 in 7.0 mi Calm Calm - N/A   Clear
3:15 AM 35.6 °F 35.6 °F 100% 30.28 in 7.0 mi Calm Calm - N/A   Clear
3:35 AM 35.6 °F 35.6 °F 100% 30.27 in 10.0 mi Calm Calm - N/A   Clear
3:55 AM 35.6 °F 35.6 °F 100% 30.27 in 1.0 mi Calm Calm - N/A   Mist
4:15 AM 35.6 °F 35.6 °F 100% 30.26 in 7.0 mi Calm Calm - N/A   Clear
4:35 AM 33.8 °F 33.8 °F 100% 30.27 in 7.0 mi Calm Calm - N/A   Clear
4:55 AM 33.8 °F 33.8 °F 100% 30.26 in 7.0 mi Calm Calm - N/A   Clear
5:15 AM 33.8 °F 33.8 °F 100% 30.27 in 5.0 mi Calm Calm - N/A   Clear
5:35 AM 33.8 °F 33.8 °F 100% 30.27 in 4.0 mi Calm Calm - N/A   Clear
5:55 AM 33.8 °F 33.8 °F 100% 30.27 in 4.0 mi Calm Calm - N/A   Clear
6:15 AM 33.8 °F 33.8 °F 100% 30.28 in 10.0 mi Calm Calm - N/A   Clear
6:35 AM 33.8 °F 33.8 °F 100% 30.28 in 7.0 mi Calm Calm - N/A   Clear
6:55 AM 33.8 °F 32.0 °F 93% 30.28 in 7.0 mi Calm Calm - N/A   Clear
7:15 AM 33.8 °F 33.8 °F 100% 30.29 in 7.0 mi Calm Calm - N/A   Clear
7:35 AM 33.8 °F 32.0 °F 93% 30.30 in 7.0 mi Calm Calm - N/A   Clear
7:55 AM 33.8 °F 32.0 °F 93% 30.30 in 5.0 mi Calm Calm - N/A   Clear
8:15 AM 33.8 °F 33.8 °F 100% 30.31 in 7.0 mi Calm Calm - N/A   Clear
8:35 AM 35.6 °F 35.6 °F 100% 30.31 in 5.0 mi Calm Calm - N/A   Clear
8:55 AM 39.2 °F 39.2 °F 100% 30.31 in 7.0 mi Calm Calm - N/A   Clear
9:15 AM 44.6 °F 42.8 °F 93% 30.31 in 10.0 mi Calm Calm - N/A   Clear
9:35 AM 48.2 °F 44.6 °F 87% 30.32 in 10.0 mi Calm Calm - N/A   Clear
9:55 AM 53.6 °F 44.6 °F 72% 30.32 in 10.0 mi Calm Calm - N/A   Clear
10:15 AM 55.4 °F 35.6 °F 47% 30.32 in 10.0 mi Calm Calm - N/A   Clear
10:35 AM 59.0 °F 30.2 °F 34% 30.32 in 10.0 mi North 5.8 mph - N/A   Clear
11:55 AM 62.6 °F 23.0 °F 22% 30.31 in 10.0 mi NNE 9.2 mph - N/A   Clear
12:15 PM 64.4 °F 23.0 °F 21% 30.31 in 10.0 mi NE 4.6 mph - N/A   Clear
12:35 PM 66.2 °F 23.0 °F 19% 30.30 in 10.0 mi NNE 6.9 mph - N/A   Clear
12:55 PM 68.0 °F 24.8 °F 20% 30.29 in 10.0 mi East 3.5 mph - N/A   Clear
1:15 PM 68.0 °F 26.6 °F 21% 30.28 in 10.0 mi North 3.5 mph - N/A   Clear
1:35 PM 69.8 °F 28.4 °F 21% 30.26 in 10.0 mi NE 10.4 mph - N/A   Clear
1:55 PM 69.8 °F 28.4 °F 21% 30.25 in 10.0 mi NNE 11.5 mph 16.1 mph N/A   Clear
2:15 PM 69.8 °F 28.4 °F 21% 30.24 in 10.0 mi North 11.5 mph 16.1 mph N/A   Clear
2:35 PM 71.6 °F 28.4 °F 20% 30.23 in 10.0 mi North 6.9 mph - N/A   Clear
2:55 PM 71.6 °F 30.2 °F 22% 30.22 in 10.0 mi North 9.2 mph - N/A   Clear
3:15 PM 71.6 °F 30.2 °F 22% 30.21 in 10.0 mi Calm Calm - N/A   Clear
3:35 PM 71.6 °F 30.2 °F 22% 30.20 in 10.0 mi East 4.6 mph - N/A   Clear
3:55 PM 73.4 °F 30.2 °F 20% 30.19 in 10.0 mi NE 6.9 mph - N/A   Clear
4:15 PM 73.4 °F 30.2 °F 20% 30.19 in 10.0 mi NNW 3.5 mph - N/A   Clear
4:35 PM 73.4 °F 30.2 °F 20% 30.18 in 10.0 mi North 3.5 mph - N/A   Clear
4:55 PM 73.4 °F 30.2 °F 20% 30.18 in 10.0 mi NW 3.5 mph - N/A   Clear
5:15 PM 73.4 °F 30.2 °F 20% 30.17 in 10.0 mi NNW 3.5 mph - N/A   Clear
5:35 PM 73.4 °F 30.2 °F 20% 30.17 in 10.0 mi NNE 5.8 mph - N/A   Clear
5:55 PM 73.4 °F 30.2 °F 20% 30.17 in 10.0 mi East 3.5 mph - N/A   Clear
6:15 PM 71.6 °F 30.2 °F 22% 30.17 in 10.0 mi Calm Calm - N/A   Clear
6:35 PM 69.8 °F 33.8 °F 27% 30.18 in 10.0 mi West 13.8 mph 18.4 mph N/A   Clear
6:55 PM 64.4 °F 33.8 °F 32% 30.19 in 10.0 mi WNW 12.7 mph 17.3 mph N/A   Clear
7:15 PM 62.6 °F 33.8 °F 34% 30.20 in 10.0 mi West 11.5 mph - N/A   Clear
7:35 PM 60.8 °F 33.8 °F 36% 30.20 in 10.0 mi West 9.2 mph - N/A   Clear
7:55 PM 60.8 °F 33.8 °F 36% 30.21 in 10.0 mi WNW 6.9 mph - N/A   Clear
8:15 PM 59.0 °F 35.6 °F 42% 30.21 in 10.0 mi WNW 5.8 mph - N/A   Clear
8:35 PM 55.4 °F 35.6 °F 47% 30.21 in 10.0 mi WNW 3.5 mph - N/A   Clear
8:55 PM 55.4 °F 35.6 °F 47% 30.22 in 10.0 mi Calm Calm - N/A   Clear
9:15 PM 51.8 °F 35.6 °F 54% 30.22 in 10.0 mi Calm Calm - N/A   Clear
9:35 PM 50.0 °F 35.6 °F 58% 30.22 in 10.0 mi Calm Calm - N/A   Clear
9:55 PM 50.0 °F 35.6 °F 58% 30.22 in 10.0 mi Calm Calm - N/A   Clear
10:15 PM 50.0 °F 37.4 °F 62% 30.23 in 10.0 mi Calm Calm - N/A   Clear
10:35 PM 48.2 °F 39.2 °F 71% 30.23 in 10.0 mi Calm Calm - N/A   Clear
10:55 PM 46.4 °F 37.4 °F 71% 30.23 in 10.0 mi Calm Calm - N/A   Clear
11:15 PM 44.6 °F 37.4 °F 76% 30.23 in 10.0 mi Calm Calm - N/A   Clear
11:35 PM 44.6 °F 37.4 °F 76% 30.22 in 10.0 mi Calm Calm - N/A   Clear
11:55 PM 42.8 °F 37.4 °F 81% 30.23 in 10.0 mi Calm Calm - N/A   Clear